Regional Weather Roundup
Issued by NWS

Home | Current Version | Previous Version | Graphics & Text | Print | Product List | Glossary On
Versions: 1 2 3 4 5 6 7 8 9 10 11 12 13 14 15 16 17 18 19 20 21 22 23 24 25 26 27 28 29 30 31 32 33 34 35 36 37 38 39 40 41 42 43 44 45 46 47 48 49 50
000
ASUS43 KDMX 180906
RWRIA

WEATHER ROUNDUP FOR IOWA
NATIONAL WEATHER SERVICE DES MOINES IA
300 AM CST THU JAN 18 2018

NOTE: "FAIR" INDICATES FEW OR NO CLOUDS BELOW 12,000 FEET WITH NO
SIGNIFICANT WEATHER AND/OR OBSTRUCTIONS TO VISIBILITY.

* - THESE STATIONS ARE NOT NWS STATIONS...THUS NOT UNDER NWS
QUALITY CONTROL.  THEY ALSO DO NOT REPORT WEATHER SUCH
AS PRECIPITATION OR FOG.

IAZ001>003-012>014-020>022-031>034-043>046-181000-
   NORTHWEST IOWA

CITY           SKY/WX    TMP DP  RH WIND       PRES   REMARKS
CARROLL *      CLOUDY    19  12  73 SW23G29   30.14F WCI   2
CHEROKEE *     CLOUDY    17  13  85 S7        30.11F WCI   7
DENISON *      CLOUDY    19  12  73 SW8       30.18S WCI   9
LE MARS *      CLOUDY    16  12  86 S5        30.10F WCI   9
ORANGE CITY *  CLOUDY    18  18 100 SW10      30.08F WCI   6
SHELDON *      CLOUDY    18  14  86 SW5       30.07F WCI  11
SIOUX CITY     CLOUDY    11   8  88 E5        30.16S WCI   3
SPENCER        CLOUDY    18  12  77 SW9       30.08S WCI   7
STORM LAKE *   CLOUDY    19  14  79 SW16      30.10S WCI   5
$$

IAZ055>058-069>071-079>083-090>094-181000-
   SOUTHWEST IOWA

CITY           SKY/WX    TMP DP  RH WIND       PRES   REMARKS
ATLANTIC *     CLOUDY    16  10  79 SW8       30.21S WCI   5
AUDUBON *      CLOUDY    18  10  73 SW9       30.18S WCI   6
CLARINDA *     CLOUDY    12  10  92 S3        30.28
COUNCIL BLFS * CLOUDY    19  12  73 SW12      30.21S WCI   7
CRESTON *      CLOUDY    16  12  86 SW13      30.23S WCI   2
HARLAN  *      CLOUDY    14  10  85 SW7       30.23F WCI   4
LAMONI         CLOUDY    17  10  74 SW14      30.25F WCI   3
RED OAK *      CLOUDY    16  10  79 S6        30.24F WCI   7
SHENANDOAH *   CLOUDY    16  10  79 SW5       30.27S WCI   9
$$

IAZ047>049-059>061-072>074-084-181000-
   CENTRAL IOWA

CITY           SKY/WX    TMP DP  RH WIND       PRES   REMARKS
AMES           CLOUDY    18  12  77 SW5       30.17F WCI  11
ANKENY *       CLOUDY    21  12  68 SW7       30.21S WCI  13
BOONE *        CLOUDY    21  14  73 SW15      30.15S WCI   8
CHARITON *     CLOUDY    19  12  73 SW13      30.22F WCI   7
DES MOINES     CLEAR     22  11  62 SW13      30.20S WCI  10
GRINNELL*      CLOUDY    17  11  80 SW13      30.20S WCI   3
KNOXVILLE *    CLOUDY    21  10  63 SW13      30.20F WCI   9
MARSHALLTOWN   CLOUDY    19  12  74 SW13      30.17S WCI   6
NEWTON *       CLOUDY    18  12  79 SW9       30.20F WCI   6
PELLA *        CLOUDY    20  12  69 W8        30.23F WCI  11
PERRY *          N/A     19  11  69 SW14      30.18F WCI   6
$$

IAZ004>006-015-016-023>025-035-036-181000-
   NORTH CENTRAL IOWA

CITY           SKY/WX    TMP DP  RH WIND       PRES   REMARKS
ALGONA *       CLOUDY    19  19 100 SW13      30.08R WCI   7
CLARION *      CLOUDY    16  14  93 SW12      30.11F WCI   3
ESTHERVILLE    CLOUDY    20  15  81 SW12      30.05F WCI   8
FORT DODGE *   CLOUDY    17  12  80 SW10      30.12F WCI   5
MASON CITY     CLOUDY    18  11  74 SW16      30.08F WCI   3
FOREST CITY *    N/A     19  14  79 SW7       30.09S WCI  10
WEBSTER CITY * CLOUDY    18  10  73 SW16      30.11F WCI   3
IOWA FALLS *     N/A     20  14  76 SW14G21   30.13F WCI   7
$$

IAZ007>011-017>019-026>030-037>042-050>054-066-181000-
   NORTHEAST IOWA

CITY           SKY/WX    TMP DP  RH WIND       PRES   REMARKS
CEDAR RAPIDS     N/A     18  10  71 SW9       30.17F WCI   7
CHARLES CITY *   N/A     19  12  73 SW13      30.10F WCI   7
CLINTON *        N/A     16  11  80 SW21      30.19F WCI  -1
DECORAH *        N/A     18  12  79 SW8G16    30.07F WCI   7
DUBUQUE          N/A     17   9  70 SW15      30.13S WCI   2
MONTICELLO *     N/A     19  10  68 SW14      30.16F WCI   6
OELWEIN *        N/A     14  12  92 SW8       30.14F WCI   3
WATERLOO         N/A     17  10  74 W3        30.16R
$$

IAZ064-065-067-068-078-181000-
   EAST CENTRAL IOWA

CITY           SKY/WX    TMP DP  RH WIND       PRES   REMARKS
DAVENPORT        N/A     18  10  71 SW15      30.22F WCI   4
IOWA CITY        N/A     19   9  65 SW5       30.24F WCI  12
MT. PLEASANT * CLOUDY    18  10  73 SW12      30.27F WCI   5
MUSCATINE *      N/A     19  10  68 SW8G16    30.25F WCI   9
QUAD CITIES      N/A     18  10  71 SW13      30.23F WCI   5
$$

IAZ062-063-075>077-085>089-095>099-181000-
   SOUTHEAST IOWA

CITY           SKY/WX    TMP DP  RH WIND       PRES   REMARKS
BURLINGTON     CLOUDY    16   8  71 SW12      30.27F WCI   3
FAIRFIELD *    CLOUDY    18   9  68 SW14      30.24F WCI   4
FORT MADISON * CLOUDY    18  10  73 SW12      30.29S WCI   5
KEOKUK *       CLOUDY    18  10  73 SW15      30.30S WCI   3
OSKALOOSA *      N/A     19  12  74 SW15      30.23F WCI   5
OTTUMWA        CLOUDY    20  10  65 SW17      30.23F WCI   5
WASHINGTON *   CLOUDY    18  12  79 SW14      30.25S WCI   4
$$

ABBREVIATIONS USED IN REMARKS
   TC - TEMPERATURES IN CELSIUS
  WCI - WIND CHILL INDEX
   HX - HEAT INDEX
  VSB - VISIBILITY
$$





USA.gov is the U.S. government's official web portal to all federal, state and local government web resources and services.